This is the latest recevied weather packets stored in our database for station/object VA3JLF-1. If no packets are shown the sender has not sent any weather packets the latest 10 day(s).
| Time | Temp. | Humidity | Pressure | Rain* | Wind** | Luminosity | Snow |
|---|---|---|---|---|---|---|---|
| 1778141348 | 5° C | 71% | 1008.2 hPa | 0 mm | - | - | - |
| 1778140748 | 5.56° C | 71% | 1008.5 hPa | 0 mm | - | - | - |
| 1778140148 | 5.56° C | 70% | 1008.3 hPa | 0 mm | - | - | - |
| 1778139548 | 5.56° C | 69% | 1008.1 hPa | 0 mm | - | - | - |
| 1778138948 | 5.56° C | 71% | 1008.2 hPa | 0 mm | - | - | - |
| 1778138348 | 5.56° C | 70% | 1008.1 hPa | 0 mm | - | - | - |
| 1778137748 | 5.56° C | 70% | 1008.2 hPa | 0 mm | - | - | - |
| 1778137147 | 5.56° C | 71% | 1008.3 hPa | 0 mm | - | - | - |
| 1778136548 | 6.11° C | 69% | 1008.1 hPa | 0 mm | - | - | - |
| 1778135947 | 6.11° C | 69% | 1008.1 hPa | 0 mm | - | - | - |
| 1778135348 | 6.11° C | 70% | 1007.7 hPa | 0 mm | - | - | - |
| 1778134747 | 6.11° C | 70% | 1008.2 hPa | 0 mm | - | - | - |
| 1778134148 | 6.11° C | 73% | 1008.2 hPa | 0 mm | - | - | - |
| 1778133549 | 6.11° C | 72% | 1008.2 hPa | 0 mm | - | - | - |
| 1778132948 | 6.11° C | 75% | 1008.3 hPa | 0 mm | - | - | - |
| 1778132348 | 6.11° C | 72% | 1008.3 hPa | 0 mm | - | - | - |
| 1778131749 | 6.11° C | 72% | 1008.5 hPa | 0 mm | - | - | - |
| 1778131148 | 6.11° C | 71% | 1008.3 hPa | 0 mm | - | - | - |
| 1778130549 | 6.11° C | 70% | 1008.4 hPa | 0 mm | - | - | - |
| 1778129955 | 6.11° C | - | - | 0 mm | - | - | - |
| 1778129949 | 6.11° C | 71% | 1008.6 hPa | 0 mm | - | - | - |
| 1778129348 | 6.11° C | 73% | 1008.2 hPa | 0 mm | - | - | - |
| 1778128748 | 6.67° C | 73% | 1008.4 hPa | 0 mm | - | - | - |
| 1778128149 | 6.67° C | 70% | 1008.7 hPa | 0 mm | - | - | - |
| 1778127548 | 6.11° C | 69% | 1008.6 hPa | 0 mm | - | - | - |
* Rain latest hour (hover to see other rain measurements)
** Current wind speed in m/s (hover to see current wind gust speed)